Tracking 28052 objects as of 22-Sep-2023
HD Live streaming from Space Station
objects crossing your sky now

CENTAURI-3(TYVAK-0210)

Track CENTAURI-3(TYVAK-0210) now!
10-day predictions


NORAD ID: 47966
Int'l Code: 2021-023B
Perigee: 493.3 km
Apogee: 506.4 km
Inclination: 45.0 °
Period: 94.5 minutes
Semi major axis: 6870 km
RCS: Unknown
Launch date: March 22, 2021
Source: Australia (AUS)
Launch site: Rocket Lab Launch Complex (RLLC)
Your satellite tracking list
Your tracking list is empty




NASA's NSSDC Master Catalog

Two Line Element Set (TLE):
1 47966U 21023B   23265.14632553  .00030445  00000-0  12261-2 0  9997
2 47966  45.0013 291.5633 0009495   6.2478 353.8521 15.24359574138026
Source of the keplerian elements: AFSPC